Probability
1 0 0 1 1 2 1 0 0 0 0 0 0 0 0 0 0 0 0 0 0 0 0 0 0 0 0 0 0 0 0 0 0 0 0 0 0 0 0 0 0 0 0
2 1 1 2 4 4 3 1 1 0 0 0 0 0 0 0 0 0 0 0 0 0 0 0 0 0 0 0 0 0 0 0 0 0 0 0 0 0 0 0 0 0 0
2 2 2 5 6 5 4 2 1 1 1 0 0 0 0 0 0 0 0 0 0 0 0 0 0 0 0 0 0 0 0 0 0 0 0 0 0 0 0 0 0 0 0
3 4 5 6 6 4 3 2 2 2 2 1 0 0 0 0 0 0 0 0 0 0 0 0 0 0 0 0 0 0 0 0 0 0 0 0 0 0 0 0 0 0 0
4 6 7 5 3 2 2 3 3 4 4 3 1 0 0 0 0 0 0 0 0 0 0 0 0 0 0 0 0 0 0 0 0 0 0 0 0 0 0 0 0 0 0
6 8 8 5 3 2 3 5 6 6 6 5 3 1 0 0 0 0 0 0 0 0 0 0 0 0 0 0 0 0 0 0 0 0 0 0 0 0 0 0 0 0 0
7 8 8 7 4 3 4 6 7 8 8 7 3 1 0 0 0 0 0 0 0 0 0 0 0 0 0 0 0 0 0 0 0 0 0 0 0 0 0 0 0 0 0
6 7 9 7 4 3 5 7 8 8 7 5 2 1 1 0 0 0 0 0 0 0 0 0 0 0 0 0 0 0 0 0 0 0 0 0 0 0 0 0 0 0 0
4 6 7 6 4 3 5 7 7 7 4 2 1 0 0 0 0 0 0 0 0 0 0 0 0 0 0 0 0 0 0 0 0 0 0 0 0 0 0 0 0 0 0
3 3 4 4 4 4 5 5 4 4 2 1 0 0 0 0 0 0 0 0 0 1 1 1 0 0 0 0 0 0 0 0 0 0 1 1 1 1 1 1 1 1 0
4 3 2 3 3 4 4 2 1 1 1 0 0 0 0 0 1 1 1 0 0 1 2 1 0 0 0 0 0 0 0 0 0 1 2 2 2 2 2 2 2 2 1
9 5 3 4 5 4 3 2 1 1 0 1 1 1 1 1 2 2 1 0 0 1 1 1 0 0 0 0 0 0 0 0 0 1 2 3 3 3 3 3 3 3 3
12 9 6 7 8 7 5 3 2 2 1 1 2 2 1 1 3 3 2 1 0 0 0 0 0 0 0 0 1 0 0 0 0 1 2 3 3 3 3 3 3 3 3
15 12 10 9 11 12 9 6 4 2 1 1 2 2 1 1 3 3 2 2 1 0 0 0 1 1 0 0 0 0 0 0 0 1 2 3 3 3 3 3 3 3 3
19 17 15 14 15 15 14 10 6 4 2 1 1 1 0 1 2 2 2 2 2 1 0 0 0 1 1 1 1 0 0 1 1 1 2 3 3 4 4 3 3 3 3
23 22 20 20 19 18 16 13 11 8 6 3 1 1 1 2 2 2 2 2 2 1 1 1 0 1 2 2 1 0 0 2 3 2 2 3 3 5 5 4 3 4 4
26 26 25 24 22 19 17 16 14 12 9 6 3 3 3 3 4 4 3 2 1 2 2 2 0 0 1 1 1 0 0 2 3 3 3 3 3 5 5 5 5 5 5
29 29 27 24 22 21 20 18 16 12 9 7 6 4 4 4 4 4 3 2 1 1 1 1 0 0 0 0 0 0 0 1 2 3 3 3 3 4 5 7 7 7 6
30 29 26 24 23 24 23 20 16 12 8 6 5 4 3 3 4 4 3 2 0 0 0 0 0 0 0 0 0 0 0 1 1 1 2 2 3 4 5 7 8 8 7
31 29 26 25 24 25 23 19 16 13 8 5 4 3 3 3 3 3 2 1 0 0 0 0 0 0 0 0 0 0 0 0 0 0 1 1 1 2 3 5 7 7 7
29 28 26 24 22 22 21 17 15 12 8 5 4 3 3 3 3 2 1 1 0 0 0 0 0 0 0 0 0 0 0 0 0 0 0 0 0 1 2 3 4 6 7
25 24 23 21 19 17 17 15 13 11 8 6 4 4 3 3 3 2 1 1 0 0 0 0 0 0 0 0 0 0 0 0 0 0 0 0 0 2 2 2 2 4 5
20 21 19 18 16 14 14 12 10 8 7 5 4 4 4 3 3 2 1 0 0 0 0 0 0 0 0 0 0 0 0 0 0 0 0 0 0 1 3 2 1 2 2
17 18 19 19 17 15 12 10 8 6 4 4 3 4 3 3 3 1 0 0 0 0 0 0 0 0 0 0 0 0 0 0 0 0 0 0 0 0 1 1 1 0 1
11 16 20 20 19 15 11 8 6 4 3 3 3 3 3 3 2 1 0 0 0 0 0 0 0 0 0 0 0 0 0 0 0 0 0 0 0 0 0 0 0 0 0
8 13 18 19 19 15 10 6 4 3 3 3 3 3 3 2 1 0 0 0 0 0 0 0 0 0 0 0 0 0 0 0 0 0 0 0 0 0 0 0 0 0 0
Wind_Speed
13 16 16 13 14 14 14 14 14 14 14 13 13 12 11 11 10 10 9 9 9 9 9 9 9 10 10 10 10 10 10 11 11 11 12 12 12 12 11 10 10 13 14
16 18 17 14 14 14 14 14 14 13 13 13 12 12 11 10 10 9 9 9 9 9 9 9 10 10 10 10 10 10 10 10 10 11 11 12 12 11 9 7 8 12 13
18 18 17 13 14 14 14 14 14 14 13 13 12 11 11 10 9 9 8 8 9 9 9 9 9 9 9 10 9 9 9 9 9 8 8 9 12 10 9 11 14 13 13
18 18 17 16 15 15 14 14 14 13 13 12 12 11 10 10 9 9 8 8 9 9 8 8 9 9 9 9 9 9 9 8 7 6 5 8 10 11 9 11 12 12 12
17 16 17 17 15 15 14 14 13 13 13 12 11 11 10 9 8 8 8 8 8 8 8 8 8 8 8 8 8 8 8 7 4 5 6 6 9 10 9 10 11 11 11
17 16 18 16 16 15 14 14 13 13 12 12 11 10 9 9 8 8 7 7 7 7 7 7 7 7 7 7 7 6 6 4 7 5 6 6 9 9 9 9 10 10 11
17 16 19 16 15 15 14 14 13 12 12 11 10 9 8 8 7 7 7 7 7 6 6 6 6 6 6 6 5 5 3 2 4 5 4 5 9 9 8 9 9 10 10
16 15 17 16 15 14 13 13 12 12 11 10 10 9 8 7 6 6 6 6 6 5 5 5 5 5 5 4 4 3 1 6 2 4 3 6 10 7 7 8 8 9 9
15 14 15 15 14 13 12 12 12 11 10 9 9 8 7 6 6 5 5 5 5 4 4 4 4 4 4 3 3 2 1 5 5 2 3 5 10 7 7 8 8 8 9
14 14 13 13 12 12 12 12 11 10 9 8 8 7 7 6 6 5 6 5 4 4 4 3 3 3 3 3 2 1 1 6 5 3 2 7 10 7 7 8 8 8 8
13 12 13 13 11 10 11 12 11 10 9 9 9 8 7 6 6 7 5 6 4 3 3 3 3 3 4 5 4 2 5 5 2 1 2 10 9 8 8 8 8 9 8
13 12 11 11 10 9 8 9 7 8 8 7 5 6 5 3 2 2 8 4 3 3 4 4 3 5 7 5 6 7 4 5 3 2 4 9 8 9 9 9 9 10 9
12 12 11 10 10 9 6 6 4 3 4 5 5 5 3 3 3 2 3 4 3 4 4 5 6 4 3 2 2 3 3 3 3 2 4 8 6 9 10 10 11 11 11
12 11 11 10 9 7 6 5 5 4 4 4 5 4 3 2 2 2 1 1 1 1 1 1 1 2 2 3 4 4 4 4 3 2 3 6 4 8 10 11 12 12 12
11 11 10 10 9 8 6 4 5 4 4 4 3 3 2 2 2 2 1 0 1 0 1 1 1 2 2 3 3 4 4 4 4 5 2 6 5 7 9 11 12 12 13
11 11 10 10 9 8 6 5 4 4 3 2 3 3 3 2 2 1 2 1 0 0 0 1 1 2 2 2 3 3 4 4 4 5 5 4 8 7 8 10 12 13 14
10 10 10 9 9 8 7 6 5 4 4 3 3 3 3 3 3 2 2 1 1 1 1 0 1 2 2 3 3 3 3 4 4 5 5 5 5 9 9 9 11 13 14
9 9 9 9 9 8 6 5 4 4 4 3 3 3 3 3 3 2 2 2 2 1 1 1 1 2 2 3 2 3 3 3 4 5 5 5 5 5 8 10 10 11 13
9 9 9 8 9 8 7 6 5 4 4 4 3 3 4 4 4 2 2 2 1 1 0 1 1 2 2 3 3 3 3 3 3 5 4 6 5 5 5 6 9 10 12
8 9 9 9 8 8 7 5 4 5 4 4 4 4 4 4 4 2 3 3 1 1 1 1 1 1 3 3 5 3 4 4 3 3 4 4 4 5 6 5 5 8 12
9 9 9 9 8 6 5 5 5 5 4 4 4 5 5 4 4 2 2 3 0 1 1 1 2 1 2 3 5 4 3 4 2 2 2 3 3 3 4 4 5 4 5
9 9 9 9 9 7 5 3 3 4 4 4 4 5 5 4 4 3 1 2 1 1 1 0 2 3 2 2 4 5 4 3 4 1 2 2 2 3 3 3 3 4 6
10 10 9 8 8 7 6 5 5 4 4 5 5 5 4 4 4 2 2 1 1 2 1 1 2 2 3 2 3 5 5 4 3 2 0 1 2 3 4 3 5 4 5
10 9 9 8 8 7 7 6 7 5 5 5 4 4 5 4 3 3 3 2 2 2 1 3 0 2 3 3 1 2 4 5 6 3 2 1 1 3 3 5 4 4 4
11 10 9 9 8 8 6 7 6 6 5 5 5 5 4 4 4 3 3 3 3 2 1 2 1 3 3 4 3 3 3 3 5 6 5 4 4 3 3 4 4 4 4
11 10 10 9 8 8 7 7 6 5 5 5 5 5 5 4 4 4 4 3 3 2 2 2 2 3 3 3 4 4 4 4 4 5 6 6 5 4 4 4 5 4 4
Wind_Direction
155 142 140 147 145 143 141 139 138 137 137 135 133 131 130 127 124 119 112 107 102 98 94 92 92 92 92 92 93 94 97 101 104 106 106 105 106 108 112 122 131 109 110
149 141 142 147 145 142 140 138 136 136 136 136 134 132 130 127 123 116 111 107 103 98 94 92 92 92 93 94 95 96 98 102 107 111 119 116 109 109 110 98 79 105 117
147 141 148 147 145 142 140 139 138 137 137 136 135 134 131 128 123 118 113 106 101 98 96 94 93 92 93 95 97 98 99 102 108 126 163 132 115 111 107 98 100 115 118
148 147 152 145 147 145 143 141 139 138 137 137 137 135 134 131 128 122 116 109 104 101 101 99 96 93 92 94 98 99 101 105 118 184 163 114 119 114 115 113 116 119 120
147 147 141 150 151 149 147 144 142 141 139 139 138 137 135 132 128 122 116 111 108 105 105 102 98 95 91 93 97 101 105 112 152 218 97 105 108 119 124 123 123 123 122
150 152 144 156 154 152 150 148 146 145 144 143 141 140 138 133 130 123 117 111 109 106 104 103 100 97 93 92 95 100 108 140 217 117 112 123 114 126 133 132 128 127 127
155 152 147 158 156 155 153 151 150 149 148 146 144 143 141 136 132 129 124 117 113 110 106 105 104 99 94 92 93 94 103 241 254 105 126 112 106 127 140 139 136 134 133
155 152 145 157 159 157 156 156 154 153 151 150 150 149 147 144 141 135 133 130 126 120 117 114 111 108 100 91 90 87 81 279 207 124 124 109 109 141 148 144 144 143 140
155 150 152 159 161 160 159 160 159 157 156 157 155 154 152 149 147 143 137 134 132 126 126 128 124 120 112 101 93 84 18 298 276 129 141 119 128 157 162 158 155 154 152
158 156 157 162 160 167 165 164 163 161 161 159 158 158 157 161 165 164 176 149 142 141 148 154 151 146 139 137 137 139 247 256 249 153 145 122 142 173 179 171 170 169 168
162 162 165 161 162 171 168 158 167 166 164 168 169 166 187 192 174 177 139 126 154 166 173 176 172 176 188 180 183 206 238 251 226 156 128 119 160 187 192 186 184 184 182
167 168 166 165 161 172 169 157 174 177 165 190 169 176 192 166 177 160 109 140 166 192 198 184 182 204 227 202 178 203 233 247 263 206 124 135 179 200 203 199 196 196 195
168 171 168 167 166 174 165 167 170 172 163 181 172 183 180 181 180 172 148 162 184 204 211 175 199 218 226 250 259 236 258 272 268 265 126 144 194 213 214 210 206 204 204
174 175 172 165 170 175 170 169 171 176 175 177 165 193 174 186 185 154 174 171 177 202 224 242 234 229 256 250 254 266 256 257 270 276 132 150 203 224 223 218 214 212 211
174 172 169 169 169 171 171 184 172 180 174 160 154 167 187 179 173 154 163 187 237 226 198 228 257 247 250 249 251 250 257 261 270 270 203 169 210 224 223 220 217 219 220
176 172 167 172 170 173 174 176 169 174 162 157 159 158 179 165 147 163 167 134 202 132 29 271 250 241 247 246 250 254 262 265 253 263 268 203 202 215 223 226 221 217 223
174 171 170 171 169 174 176 177 169 168 159 159 149 151 159 158 143 159 137 147 103 94 120 242 269 272 257 244 243 251 253 260 261 254 263 267 230 205 212 224 228 221 221
170 168 171 171 165 169 167 170 167 164 153 151 149 147 148 141 151 170 142 110 109 125 145 183 251 273 283 278 268 265 258 247 252 255 253 247 256 253 211 209 225 227 225
165 165 163 162 161 161 158 161 155 145 149 152 150 147 144 150 153 159 112 95 148 124 52 300 54 311 305 307 281 257 270 262 264 256 263 260 252 256 257 199 210 222 229
158 159 158 155 155 157 154 151 144 145 153 149 144 134 142 146 148 150 131 114 151 114 77 34 358 333 309 308 295 294 272 276 263 263 264 258 257 256 255 253 229 215 219
159 159 158 155 154 159 157 164 159 159 156 152 149 143 152 147 140 152 125 129 186 86 22 329 308 271 292 321 291 277 245 231 247 247 266 283 273 274 273 261 255 254 218
166 167 162 164 161 165 156 158 154 140 155 143 141 141 158 156 165 170 158 187 134 145 165 307 310 311 326 330 313 302 279 206 188 212 251 253 298 283 268 257 266 256 263
171 175 168 164 162 162 157 159 147 148 167 159 159 160 160 167 176 172 181 217 181 231 146 253 280 296 314 311 329 315 310 330 327 190 211 288 305 308 287 283 259 262 262
173 173 167 164 161 162 175 176 177 181 178 162 170 154 159 174 184 183 192 196 227 252 174 238 130 293 293 300 292 297 316 338 308 303 235 209 250 278 306 297 293 270 262
171 169 163 163 161 166 175 169 184 188 171 162 167 149 177 166 184 189 192 200 215 238 234 294 261 283 288 307 316 310 301 272 268 290 302 309 288 281 294 286 291 286 280
170 168 163 163 164 166 173 172 187 176 172 169 180 170 191 179 186 180 193 203 220 235 212 234 252 239 287 313 305 302 297 296 297 295 293 289 297 299 303 300 280 275 271